HEBA - Borg El Arab Airport

HEBA 141100Z 30011KT 9999 SCT020 SCT022 27/11 Q1013 NOSIG


Sceneries:

Scenery Link
HEBA/HBE - FREEWARE - Borg AlArab v2.0

Briefing & Aerodrome Charts:

To be uploaded soon! Stay tuned!


Our Partners

VATSIM

VATSIM is the Virtual Air Traffic Simulation network, connecting people from around the world flying online or acting as virtual Air Traffic Controllers.

VATMENA

VATME - VATSIM Middle East & North Africa Divison is part of the Africa and Middle East Region on the VATSIM Network.

Egyptair Virtual

Egyptair Virtual simulates the real life operations of Egyptair yet is not releated to the actual Egyptair.